Home   Weather   Saint John   Past weeks

Flag for Canada Past Weather in Saint John, New Brunswick, Canada — Yesterday and Last 2 Weeks

Now
32 °F

Light rain. Ice fog.


Feels Like: 20 °F
Forecast: 26 / 35 °F
Wind: 21 mph from East

Location: Saint John

Current Time: Jan 24, 2017 at 3:36:07 pm

Latest Report: Jan 24, 2017 at 3:00 pm


Visibility: 5 mi

Pressure: 29.77 "Hg

Humidity: 100%

Dew Point: 32 °F

Location of Saint JohnLocation

Past Weather in Saint John — Graph

°F

Saint John Temperature Yesterday

Maximum temperature yesterday: 32 °F (at 3:00 pm)
Minimum temperature yesterday: 21 °F (at 8:00 pm)
Average temperature yesterday: 25 °F

High & Low Weather Summary for the Past Weeks

 TemperatureHumidityPressure
High46 °F (Jan 11, 2:33 pm)100% (Jan 10, 5:14 am)30.72 "Hg (Jan 10, 5:14 am)
Low-13 °F (Jan 10, 1:42 am)29% (Jan 13, 2:00 pm)29.68 "Hg (Jan 21, 4:00 pm)
Average26 °F79%30.16 "Hg
* Reported Jan 9 2:00 pm — Jan 24 2:00 pm, Saint John, Weather by CustomWeather, © 2017

Note: Actual official high and low records may vary slightly from our data, if they occured in-between our weather recording intervals... More about our weather records

Advertising

Saint John Weather History for the Previous 24 Hours

Scroll right to see more
 ConditionsComfort  
Time TempWeatherWind HumidityBarometerVisibility
2:00 pm
Tue, Jan 24
32 °FLight freezing rain. Ice fog.26 mph100%29.80 "Hg5 mi
1:00 pm30 °FLight freezing rain. Overcast.18 mph93%29.86 "Hg8 mi
12:00 pm30 °FLight freezing rain. Mostly cloudy.17 mph86%29.93 "Hg10 mi
11:00 am28 °FLight freezing rain. Overcast.16 mph86%29.99 "Hg15 mi
10:35 am28 °FLight freezing rain. More clouds than sun.23 mph93%29.99 "Hg10 mi
10:00 am28 °FSleet. Cloudy.14 mph86%30.01 "Hg10 mi
9:38 am28 °FSleet. Mostly cloudy.16 mph80%30.03 "Hg10 mi
9:19 am27 °FMostly cloudy.15 mph86%30.03 "Hg15 mi
8:00 am27 °FOvercast.14 mph74%30.05 "Hg15 mi
7:00 am27 °FOvercast.12 mph69%30.06 "Hg15 mi
6:00 am27 °FOvercast.14 mph74%30.06 "Hg15 mi
5:00 am25 °FOvercast.12 mph86%30.09 "Hg15 mi
4:00 am25 °FOvercast.14 mph86%30.10 "Hg15 mi
3:00 am25 °FPassing clouds.12 mph86%30.14 "Hg15 mi
2:00 am25 °FPassing clouds.12 mph86%30.15 "Hg15 mi
1:00 am21 °FClear.7 mph93%30.17 "Hg15 mi
12:00 am21 °FClear.8 mph86%30.17 "Hg15 mi
11:00 pm
Mon, Jan 23
21 °FPassing clouds.7 mph86%30.17 "Hg15 mi
10:00 pm21 °FPassing clouds.9 mph80%30.18 "Hg15 mi
9:00 pm21 °FPassing clouds.6 mph86%30.18 "Hg15 mi
8:00 pm21 °FPassing clouds.2 mph93%30.19 "Hg15 mi
7:00 pm23 °FHigh level clouds.3 mph86%30.19 "Hg15 mi
6:00 pm25 °FHigh level clouds.6 mph80%30.19 "Hg15 mi
5:00 pm28 °FPartly sunny.5 mph69%30.18 "Hg15 mi
4:00 pm30 °FScattered clouds.7 mph69%30.18 "Hg15 mi
3:00 pm32 °FSunny.8 mph55%30.16 "Hg15 mi
Weather by CustomWeather, © 2017

See weather overviewHow to use our weather pages